Station CHBV2 - 8638901 - Chesapeake Bay Bridge Tunnel, VA Image indicating link to RSS feed of recent meteorological observations for station CHBV2


Conditions at CHBV2 as of
(12:48 am EDT)
0448 GMT on 06/14/2024:
     

Click on the graph icon in the table below to see a time series plot of the last five days of that observation.

5-day plot - Wind Direction Wind Direction (WDIR): S ( 190 deg true )
5-day plot - Wind Speed Wind Speed (WSPD): 9.9 kts
5-day plot - Wind Gust Wind Gust (GST): 12.0 kts
5-day plot - Atmospheric Pressure Atmospheric Pressure (PRES):29.96 in
5-day plot - Air Temperature Air Temperature (ATMP): 74.3 °F
5-day plot - Wind Speed at 10 Meters Wind Speed at 10 meters (WSPD10M): 11.7 kts
5-day plot - Wind Speed at 20 Meters Wind Speed at 20 meters (WSPD20M): 11.7 kts
5-day plot -  Wind Speed, Wind Gust and Atmospheric Pressure Combined plot of Wind Speed, Gust, and Air Pressure
NOS Water Level Observation Network Water Level
Previous observations
TIME
(EDT)
5-day plot - Wind Direction
WDIR
 
5-day plot - Wind Speed
WSPD
kts
5-day plot - Wind Gust
GST
kts
5-day plot - Wave Height
WVHT
ft
5-day plot - Dominant Wave Period
DPD
sec
5-day plot - Average Wave Period
APD
sec
5-day plot - Mean Wave Direction
MWD
 
5-day plot - Atmospheric Pressure
PRES
in
5-day plot - Pressure Tendency
PTDY
in
5-day plot - Air Temperature
ATMP
°F
5-day plot - Water Temperature
WTMP
°F
5-day plot - Dew Point
DEWP
°F
5-day plot - Salinity
SAL
psu
5-day plot - Visibility
VIS
nmi
5-day plot - Tide (above MLLW)
TIDE
ft
2024-06-14 12:42 am S 9.9 12.0----29.96- 74.3-----
2024-06-14 12:36 am S 8.9 12.0----29.97- 74.5-----
2024-06-14 12:30 am S 9.9 12.0----29.97- 74.5-----
2024-06-14 12:24 am S 9.9 12.0----29.97- 74.5-----
2024-06-14 12:18 am S 11.1 13.0----29.97- 74.7-----
2024-06-14 12:12 am S 11.1 13.0----29.97- 74.7-----
2024-06-14 12:06 am S 11.1 13.0----29.97- 74.8-----
2024-06-14 12:00 am S 9.9 12.0----29.97+0.00 74.8-----
2024-06-13 11:54 pm S 9.9 11.1----29.97- 74.8-----
2024-06-13 11:48 pm S 8.9 11.1----29.97- 74.8-----
2024-06-13 11:42 pm S 8.9 11.1----29.98- 75.0-----
2024-06-13 11:36 pm S 8.9 12.0----29.98- 75.0-----
2024-06-13 11:30 pm S 9.9 13.0----29.98- 75.2-----
2024-06-13 11:24 pm S 9.9 12.0----29.97- 75.0-----
2024-06-13 11:18 pm S 9.9 11.1----29.97- 75.0-----
2024-06-13 11:12 pm S 9.9 12.0----29.97- 75.2-----
2024-06-13 11:06 pm S 9.9 12.0----29.97- 75.2-----
2024-06-13 11:00 pm S 9.9 11.1----29.97+0.00 75.2-----
2024-06-13 10:54 pm S 9.9 13.0----29.97- 75.2-----
2024-06-13 10:48 pm S 9.9 12.0----29.98- 75.2-----
2024-06-13 10:42 pm S 9.9 13.0----29.98- 75.2-----
2024-06-13 10:36 pm S 12.0 14.0----29.98- 75.4-----
2024-06-13 10:30 pm S 9.9 13.0----29.98- 75.4-----
2024-06-13 10:24 pm S 11.1 13.0----29.98- 75.4-----
2024-06-13 10:18 pm S 9.9 12.0----29.98- 75.4-----
2024-06-13 10:12 pm S 8.9 12.0----29.98- 75.4-----
2024-06-13 10:06 pm S 9.9 13.0----29.98- 75.4-----
2024-06-13 10:00 pm S 9.9 12.0----29.98+0.00 75.4-----
2024-06-13 09:54 pm S 9.9 12.0----29.98- 75.6-----
2024-06-13 09:48 pm S 9.9 12.0----29.98- 75.6-----
2024-06-13 09:42 pm S 9.9 11.1----29.98- 75.6-----
2024-06-13 09:36 pm S 9.9 12.0----29.98- 75.6-----
2024-06-13 09:30 pm S 9.9 12.0----29.98- 75.6-----
2024-06-13 09:24 pm S 9.9 12.0----29.97- 75.4-----
2024-06-13 09:18 pm S 9.9 12.0----29.97- 75.4-----
2024-06-13 09:12 pm S 9.9 12.0----29.97- 75.4-----
2024-06-13 09:06 pm S 8.9 12.0----29.97- 75.4-----
2024-06-13 09:00 pm S 11.1 12.0----29.97+0.00 75.6-----
2024-06-13 08:54 pm S 11.1 12.0----29.97- 75.6-----
2024-06-13 08:48 pm S 9.9 12.0----29.97- 75.6-----
2024-06-13 08:42 pm S 11.1 13.0----29.97- 75.6-----
2024-06-13 08:36 pmSSE 9.9 12.0----29.97- 75.4-----
2024-06-13 08:30 pmSSE 9.9 12.0----29.97- 75.0-----
2024-06-13 08:24 pmSSE 11.1 12.0----29.97- 75.2-----
2024-06-13 08:18 pmSSE 9.9 13.0----29.98- 75.2-----
2024-06-13 08:12 pmSSE 11.1 13.0----29.98- 75.2-----
2024-06-13 08:06 pmSSE 11.1 13.0----29.98- 75.2-----
2024-06-13 08:00 pmSSE 11.1 14.0----29.98+0.00 75.6-----
2024-06-13 07:54 pmSSE 12.0 14.0----29.98- 75.6-----
2024-06-13 07:48 pmSSE 12.0 14.0----29.98- 75.6-----
2024-06-13 07:42 pmSSE 13.0 15.9----29.98- 75.6-----
2024-06-13 07:36 pmSSE 14.0 17.1----29.98- 75.4-----
2024-06-13 07:30 pmSSE 15.0 17.1----29.98- 75.4-----
2024-06-13 07:24 pmSSE 14.0 15.9----29.98- 75.6-----
2024-06-13 07:00 pmSSE 14.0 17.1----29.98-0.01------
2024-06-13 06:54 pmSSE 14.0 15.9----29.98-------
2024-06-13 06:48 pmSSE 14.0 15.9----29.98-------
2024-06-13 06:42 pmSSE 14.0 15.9----29.98-------
2024-06-13 06:36 pmSSE 14.0 15.9----29.98-------
2024-06-13 06:30 pmSSE 15.0 18.1----29.98- 75.9-----
2024-06-13 06:24 pmSSE 15.0 18.1----29.97- 75.7-----
2024-06-13 06:18 pmSSE 15.9 18.1----29.97- 75.7-----
2024-06-13 06:12 pmSSE 15.0 19.0----29.97- 75.7-----
2024-06-13 06:06 pmSSE 15.0 19.0----29.97- 75.7-----
2024-06-13 06:00 pmSSE 15.9 19.0----29.97-0.03------
2024-06-13 05:54 pmSSE 15.9 19.0----29.97-------
2024-06-13 05:48 pmSSE 17.1 19.0----29.97- 75.9-----
2024-06-13 05:42 pmSSE 15.9 19.0----29.97- 75.9-----
2024-06-13 05:36 pmSSE 15.0 19.0----29.97- 76.1-----
2024-06-13 05:30 pmSSE 15.9 19.0----29.97- 76.1-----
2024-06-13 05:24 pmSSE 17.1 20.0----29.97- 76.1-----
2024-06-13 05:18 pmSSE 15.9 19.0----29.97-------
2024-06-13 05:12 pmSSE 15.9 19.0----29.97-------
2024-06-13 05:06 pmSSE 17.1 20.0----29.98-------
2024-06-13 05:00 pmSSE 17.1 20.0----29.98-0.04 75.9-----
2024-06-13 04:54 pmSSE 17.1 20.0----29.98- 75.9-----
2024-06-13 04:48 pmSSE 17.1 20.0----29.98- 76.1-----
2024-06-13 04:42 pmSSE 17.1 20.0----29.98- 76.1-----
2024-06-13 04:36 pmSSE 17.1 20.0----29.98- 76.1-----
2024-06-13 04:30 pmSSE 17.1 20.0----29.98- 76.1-----
2024-06-13 04:24 pmSSE 17.1 21.0----29.98- 76.1-----
2024-06-13 04:18 pmSSE 17.1 20.0----29.98-------
2024-06-13 04:12 pmSSE 17.1 21.0----29.98-------
2024-06-13 04:06 pmSSE 17.1 20.0----29.99-------
2024-06-13 04:00 pmSSE 17.1 19.0----29.99-0.03 76.3-----
2024-06-13 03:54 pmSSE 15.9 19.0----29.99- 76.1-----
2024-06-13 03:48 pmSSE 15.9 19.0----29.99- 76.1-----
2024-06-13 03:42 pmSSE 15.9 20.0----29.99- 76.1-----
2024-06-13 03:36 pmSSE 18.1 20.0----29.99- 76.1-----
2024-06-13 03:30 pmSSE 17.1 20.0----30.00-------
2024-06-13 03:24 pmSSE 17.1 19.0----30.00-------
2024-06-13 03:18 pmSSE 15.0 18.1----30.00- 76.5-----
2024-06-13 03:12 pmSSE 15.9 19.0----30.00- 76.5-----
2024-06-13 03:06 pmSSE 15.9 19.0----30.00- 76.6-----
2024-06-13 03:00 pmSSE 15.0 18.1----30.00- 76.5-----
2024-06-13 02:54 pmSSE 15.0 18.1----30.01- 76.5-----
2024-06-13 02:48 pmSSE 15.0 18.1----30.01-------
2024-06-13 02:42 pmSSE 15.9 19.0----30.01-------
2024-06-13 02:36 pmSSE 15.0 19.0----30.01-------
2024-06-13 02:30 pmSSE 17.1 19.0----30.01-------
2024-06-13 02:24 pmSSE 15.9 20.0----30.01-------
2024-06-13 02:18 pmSSE 17.1 19.0----30.01- 76.3-----
2024-06-13 02:12 pmSSE 17.1 19.0----30.02- 76.5-----
2024-06-13 02:06 pmSSE 15.9 20.0----30.02- 76.5-----
2024-06-13 02:00 pmSSE 15.9 19.0----30.02-0.01------
2024-06-13 01:54 pmSSE 17.1 20.0----30.02-------
2024-06-13 01:48 pmSSE 15.9 18.1----30.02-------
2024-06-13 01:42 pmSSE 15.0 18.1----30.02-------
2024-06-13 01:36 pmSSE 15.9 18.1----30.02-------
2024-06-13 01:30 pm--------- 76.3-----
2024-06-13 01:24 pm--------- 76.3-----
2024-06-13 01:18 pm SE 13.0 17.1----30.02- 76.3-----
2024-06-13 01:12 pm SE 13.0 15.9----30.02- 76.1-----
2024-06-13 01:06 pmSSE 14.0 15.9----30.02- 76.1-----
2024-06-13 01:00 pm-------30.02-0.01 75.9-----
2024-06-13 12:54 pm-------30.02- 75.7-----
2024-06-13 12:48 pm SE 14.0 18.1----30.02- 75.9-----
2024-06-13 12:42 pmSSE 13.0 15.0----30.02- 75.9-----
2024-06-13 12:36 pm SE 13.0 15.9----30.02- 76.1-----
2024-06-13 12:30 pm-------30.02- 76.1-----
2024-06-13 12:24 pm-------30.03- 75.7-----
2024-06-13 12:18 pm SE 12.0 15.0----30.03-------
2024-06-13 12:12 pm SE 12.0 15.0----30.03-------
2024-06-13 12:06 pm SE 12.0 14.0----30.03-------
2024-06-13 12:00 pm SE 11.1 14.0------ 75.7-----
2024-06-13 11:54 am SE 12.0 14.0------ 75.6-----
2024-06-13 11:48 am SE 11.1 12.0----30.03-------
2024-06-13 11:42 am SE 8.9 12.0----30.03-------
2024-06-13 11:36 am SE 8.9 9.9----30.03-------
2024-06-13 11:30 am SE 8.0 9.9----30.03-------
2024-06-13 11:24 am SE 7.0 8.9----30.03-------
2024-06-13 11:18 am SE 7.0 9.9----30.03- 75.4-----
2024-06-13 11:12 am SE 7.0 8.9----30.03- 75.4-----
2024-06-13 11:06 am SE 8.0 9.9----30.03- 75.4-----
2024-06-13 11:00 am SE 8.0 8.9----30.03+0.00 75.6-----
2024-06-13 10:54 am SE 7.0 8.9----30.03- 75.7-----
2024-06-13 10:48 am SE 7.0 8.9----30.03- 75.4-----
2024-06-13 10:42 am SE 6.0 8.0----30.03- 75.4-----
2024-06-13 10:36 am SE 6.0 8.0----30.03- 75.2-----
2024-06-13 10:30 am SE 6.0 8.0----30.03-------
2024-06-13 10:24 am SE 8.0 8.9----30.03-------
2024-06-13 10:18 amSSE 8.0 9.9----30.03- 74.8-----
2024-06-13 10:12 amSSE 8.0 8.9----30.03- 75.0-----
2024-06-13 10:06 amSSE 6.0 8.9----30.03- 75.2-----
2024-06-13 10:00 am SE 6.0 7.0----30.03+0.00 75.6-----
2024-06-13 09:54 amSSE 6.0 7.0----30.03- 75.6-----
2024-06-13 09:48 amSSE 5.1 7.0----30.03- 75.6-----
2024-06-13 09:42 am S 7.0 8.0----30.03- 75.2-----
2024-06-13 09:36 amSSE 6.0 8.0----30.04- 75.0-----
2024-06-13 09:30 amSSE 6.0 8.0----30.04- 74.7-----
2024-06-13 09:24 am S 6.0 8.9----30.04- 74.7-----
2024-06-13 09:18 am S 7.0 8.9----30.04- 74.5-----
2024-06-13 09:12 am S 8.0 9.9----30.04- 74.1-----
2024-06-13 09:06 amSSE 8.9 9.9----30.04- 73.8-----
2024-06-13 09:00 amSSE 8.9 11.1----30.04+0.04 73.6-----
2024-06-13 08:54 amSSE 7.0 11.1----30.04- 73.8-----
2024-06-13 08:48 amSSE 8.9 11.1----30.04- 73.6-----
2024-06-13 08:42 amSSE 8.9 11.1----30.04- 73.6-----
2024-06-13 08:36 am S 9.9 11.1----30.04- 73.8-----
2024-06-13 08:30 amSSE 8.0 8.9----30.04- 73.8-----
2024-06-13 08:24 amSSE 8.0 9.9----30.04- 73.8-----
2024-06-13 08:18 am S 8.0 9.9----30.04- 73.6-----
2024-06-13 08:12 am S 6.0 9.9----30.04- 73.6-----
2024-06-13 08:06 am S 8.0 9.9----30.04- 73.2-----
2024-06-13 08:00 amSSE 8.0 9.9----30.04+0.05 73.2-----
2024-06-13 07:54 amSSE 8.0 9.9----30.04- 73.0-----
2024-06-13 07:48 am S 8.0 9.9----30.04-------
2024-06-13 07:42 am S 8.9 11.1----30.04-------
2024-06-13 07:36 am S 8.0 9.9----30.04-------
2024-06-13 07:30 am S 8.0 9.9----30.04- 72.7-----
2024-06-13 07:24 am S 7.0 9.9----30.03- 72.5-----
2024-06-13 07:18 amSSE 8.0 9.9----30.03- 72.5-----
2024-06-13 07:12 amSSE 8.9 9.9----30.03- 72.5-----
2024-06-13 07:06 am S 7.0 8.9----30.03- 72.7-----
2024-06-13 07:00 am S 8.0 9.9----30.03+0.05 72.7-----
2024-06-13 06:54 amSSE 7.0 9.9----30.03- 72.7-----
2024-06-13 06:48 amSSE 7.0 8.9----30.02- 72.5-----
2024-06-13 06:42 amSSE 8.0 8.9----30.02- 72.3-----
2024-06-13 06:36 amSSE 6.0 8.9----30.02- 72.5-----
2024-06-13 06:30 amSSE 8.0 8.9----30.02- 72.5-----
2024-06-13 06:24 amSSE 8.0 11.1----30.01- 72.5-----
2024-06-13 06:18 amSSE 8.0 9.9----30.01- 72.5-----
2024-06-13 06:12 am S 8.9 11.1----30.01- 72.5-----
2024-06-13 06:06 am S 8.9 12.0----30.01- 72.5-----
2024-06-13 06:00 am S 8.9 12.0----30.01+0.01 72.5-----
2024-06-13 05:54 am S 11.1 12.0----30.00- 72.3-----
2024-06-13 05:48 am S 9.9 11.1----30.00- 72.3-----
2024-06-13 05:42 am S 8.9 11.1----30.00- 72.3-----
2024-06-13 05:36 am S 9.9 11.1----30.00- 72.3-----
2024-06-13 05:30 am S 9.9 12.0----29.99- 72.3-----
2024-06-13 05:24 amSSE 9.9 12.0----29.99- 72.3-----
2024-06-13 05:18 amSSE 8.9 11.1----29.99- 72.1-----
2024-06-13 05:12 am S 8.9 11.1----29.99- 72.0-----
2024-06-13 05:06 am S 8.0 9.9----29.99- 72.0-----
2024-06-13 05:00 am S 8.0 9.9----29.99+0.00 72.0-----
2024-06-13 04:54 amSSE 8.9 9.9----29.99- 72.0-----
2024-06-13 04:48 amSSE 7.0 8.9----29.98- 72.0-----
2024-06-13 04:42 am S 8.0 8.9----29.98- 72.0-----
2024-06-13 04:36 amSSE 6.0 8.9----29.98- 72.0-----
2024-06-13 04:30 amSSE 7.0 8.9----29.98- 72.0-----
2024-06-13 04:24 am S 8.0 8.9----29.98- 71.8-----
2024-06-13 04:18 am S 8.0 8.9----29.98- 71.8-----
2024-06-13 04:12 amSSE 7.0 8.0----29.98- 71.6-----
2024-06-13 04:06 am S 6.0 8.0----29.98- 71.6-----
2024-06-13 04:00 am S 7.0 8.0----29.98-0.02 71.6-----
2024-06-13 03:54 am S 7.0 8.9----29.98- 71.6-----
2024-06-13 03:48 am S 6.0 8.0----29.98- 71.6-----
2024-06-13 03:42 am S 7.0 8.9----29.98- 71.6-----
2024-06-13 03:36 am S 7.0 8.9----29.99- 71.6-----
2024-06-13 03:30 am S 7.0 8.0----29.99- 71.6-----
2024-06-13 03:24 am S 6.0 8.0----29.99- 71.8-----
2024-06-13 03:18 am S 7.0 8.0----29.99- 71.8-----
2024-06-13 03:12 am S 7.0 8.0----29.99- 71.8-----
2024-06-13 03:06 am S 8.0 8.9----29.99- 72.0-----
2024-06-13 03:00 am S 8.0 8.9----29.99-0.01 72.0-----
2024-06-13 02:54 am S 8.0 9.9----29.99- 72.0-----
2024-06-13 02:48 am S 8.0 8.9----29.99-------
2024-06-13 02:42 am S 7.0 8.9----29.99-------
2024-06-13 02:36 am S 7.0 8.9----29.99-------
2024-06-13 02:30 am S 8.0 8.9----29.99- 72.0-----
2024-06-13 02:24 am S 7.0 8.0----29.99- 72.1-----
2024-06-13 02:18 am S 7.0 8.0----30.00- 72.1-----
2024-06-13 02:12 am S 7.0 8.0----30.00- 72.3-----
2024-06-13 02:06 am S 7.0 8.9----30.00- 72.5-----
2024-06-13 02:00 am S 6.0 8.0----30.00-0.01------
2024-06-13 01:54 am S 6.0 8.0----30.00-------
2024-06-13 01:48 am-------30.00- 72.5-----
2024-06-13 01:42 am-------30.00- 72.3-----
2024-06-13 01:36 am-------30.00- 72.3-----
2024-06-13 01:30 amSSE 6.0 8.0----30.00- 72.1-----
2024-06-13 01:24 amSSE 6.0 7.0----30.00- 72.3-----
2024-06-13 01:18 am S 6.0 8.9----30.00- 72.5-----
2024-06-13 01:12 am S 7.0 9.9----30.00- 72.5-----
2024-06-13 01:06 am S 8.9 11.1----30.00- 72.5-----
2024-06-13 01:00 am-------30.00- 72.5-----
2024-06-13 12:54 am-------30.00- 72.5-----